Tracking 19572 objects as of 23-Feb-2019
HD Live streaming from Space Station
objects crossing your sky now

SL-16 DEB

Track SL-16 DEB now!
10-day predictions


NORAD ID: 39892
Int'l Code: 1993-016BS
Perigee: 715.7 km
Apogee: 892.4 km
Inclination: 71.0 °
Period: 100.8 minutes
Semi major axis: 7175 km
RCS: 0.0093 m2 (small)
Launch date: March 26, 1993
Source: Commonwealth of Independent States (former USSR) (CIS)
Launch site: TYURATAM MISSILE AND SPACE COMPLEX (TTMTR)

Note: This is SATELLITE DEBRIS
aabbcc
Your satellite tracking list
Your tracking list is empty




NASA's NSSDC Master Catalog

Two Line Element Set (TLE):
1 39892U 93016BS  19052.37993767 +.00001240 +00000-0 +47512-3 0  9997
2 39892 070.9827 073.9391 0123134 202.3646 157.2089 14.28451106245460
Source of the keplerian elements: AFSPC